Year,Month,Day,Hour,Minute,Value (Times are PST for temperature in C)
2018,10,21,00,00,6.40
2018,10,21,00,01,6.40
2018,10,21,00,02,6.40
2018,10,21,00,03,6.40
2018,10,21,00,04,6.40
2018,10,21,00,05,6.40
2018,10,21,00,06,6.40
2018,10,21,00,07,6.40
2018,10,21,00,08,6.40
2018,10,21,00,09,6.40
2018,10,21,00,10,6.30
2018,10,21,00,11,6.30
2018,10,21,00,12,6.30
2018,10,21,00,13,6.30
2018,10,21,00,14,6.20
2018,10,21,00,15,6.20
2018,10,21,00,16,6.20
2018,10,21,00,17,6.20
2018,10,21,00,18,6.10
2018,10,21,00,19,6.10
2018,10,21,00,20,6.10
2018,10,21,00,21,6.10
2018,10,21,00,22,6.10
2018,10,21,00,23,6.00
2018,10,21,00,24,6.00
2018,10,21,00,25,6.00
2018,10,21,00,26,6.00
2018,10,21,00,27,6.00
2018,10,21,00,28,6.00
2018,10,21,00,29,6.00
2018,10,21,00,30,5.90
2018,10,21,00,31,5.90
2018,10,21,00,32,5.90
2018,10,21,00,33,5.90
2018,10,21,00,34,5.80
2018,10,21,00,35,5.80
2018,10,21,00,36,5.80
2018,10,21,00,37,5.80
2018,10,21,00,38,5.80
2018,10,21,00,39,5.80
2018,10,21,00,40,5.80
2018,10,21,00,41,5.80
2018,10,21,00,42,5.80
2018,10,21,00,43,5.80
2018,10,21,00,44,5.80
2018,10,21,00,45,5.80
2018,10,21,00,46,5.80
2018,10,21,00,47,5.80
2018,10,21,00,48,5.80
2018,10,21,00,49,5.80
2018,10,21,00,50,5.80
2018,10,21,00,51,5.80
2018,10,21,00,52,5.80
2018,10,21,00,53,5.80
2018,10,21,00,54,5.80
2018,10,21,00,55,5.80
2018,10,21,00,56,5.80
2018,10,21,00,57,5.80
2018,10,21,00,58,5.80
2018,10,21,00,59,5.80
2018,10,21,01,00,5.80
2018,10,21,01,01,5.80
2018,10,21,01,02,5.80
2018,10,21,01,03,5.80
2018,10,21,01,04,5.80
2018,10,21,01,05,5.80
2018,10,21,01,06,5.80
2018,10,21,01,07,5.80
2018,10,21,01,08,5.80
2018,10,21,01,09,5.80
2018,10,21,01,10,5.80
2018,10,21,01,11,5.80
2018,10,21,01,12,5.80
2018,10,21,01,13,5.70
2018,10,21,01,14,5.70
2018,10,21,01,15,5.70
2018,10,21,01,16,5.70
2018,10,21,01,17,5.70
2018,10,21,01,18,5.70
2018,10,21,01,19,5.70
2018,10,21,01,20,5.80
2018,10,21,01,21,5.80
2018,10,21,01,22,5.80
2018,10,21,01,23,5.80
2018,10,21,01,24,5.80
2018,10,21,01,25,5.80
2018,10,21,01,26,5.80
2018,10,21,01,27,5.80
2018,10,21,01,28,5.80
2018,10,21,01,29,5.80
2018,10,21,01,30,5.80
2018,10,21,01,31,5.80
2018,10,21,01,32,5.80
2018,10,21,01,33,5.70
2018,10,21,01,34,5.70
2018,10,21,01,35,5.70
2018,10,21,01,36,5.70
2018,10,21,01,37,5.70
2018,10,21,01,38,5.70
2018,10,21,01,39,5.70
2018,10,21,01,40,5.70
2018,10,21,01,41,5.70
2018,10,21,01,42,5.70
2018,10,21,01,43,5.70
2018,10,21,01,44,5.60
2018,10,21,01,45,5.60
2018,10,21,01,46,5.70
2018,10,21,01,47,5.70
2018,10,21,01,48,5.70
2018,10,21,01,49,5.70
2018,10,21,01,50,5.70
2018,10,21,01,51,5.70
2018,10,21,01,52,5.70
2018,10,21,01,53,5.70
2018,10,21,01,54,5.60
2018,10,21,01,55,5.60
2018,10,21,01,56,5.60
2018,10,21,01,57,5.60
2018,10,21,01,58,5.60
2018,10,21,01,59,5.60
2018,10,21,02,00,5.60
2018,10,21,02,01,5.60
2018,10,21,02,02,5.60
2018,10,21,02,03,5.60
2018,10,21,02,04,5.60
2018,10,21,02,05,5.60
2018,10,21,02,06,5.60
2018,10,21,02,07,5.60
2018,10,21,02,08,5.60
2018,10,21,02,09,5.60
2018,10,21,02,10,5.60
2018,10,21,02,11,5.60
2018,10,21,02,12,5.50
2018,10,21,02,13,5.50
2018,10,21,02,14,5.40
2018,10,21,02,15,5.40
2018,10,21,02,16,5.40
2018,10,21,02,17,5.30
2018,10,21,02,18,5.40
2018,10,21,02,19,5.40
2018,10,21,02,20,5.40
2018,10,21,02,21,5.40
2018,10,21,02,22,5.40
2018,10,21,02,23,5.40
2018,10,21,02,24,5.50
2018,10,21,02,25,5.50
2018,10,21,02,26,5.50
2018,10,21,02,27,5.50
2018,10,21,02,28,5.50
2018,10,21,02,29,5.50
2018,10,21,02,30,5.50
2018,10,21,02,31,5.50
2018,10,21,02,32,5.40
2018,10,21,02,33,5.40
2018,10,21,02,34,5.40
2018,10,21,02,35,5.40
2018,10,21,02,36,5.40
2018,10,21,02,37,5.30
2018,10,21,02,38,5.30
2018,10,21,02,39,5.30
2018,10,21,02,40,5.20
2018,10,21,02,41,5.20
2018,10,21,02,42,5.20
2018,10,21,02,43,5.10
2018,10,21,02,44,5.10
2018,10,21,02,45,5.10
2018,10,21,02,46,5.10
2018,10,21,02,47,5.10
2018,10,21,02,48,5.10
2018,10,21,02,49,5.10
2018,10,21,02,50,5.10
2018,10,21,02,51,5.10
2018,10,21,02,52,5.10
2018,10,21,02,53,5.10
2018,10,21,02,54,5.10
2018,10,21,02,55,5.10
2018,10,21,02,56,5.10
2018,10,21,02,57,5.10
2018,10,21,02,58,5.10
2018,10,21,02,59,5.10
2018,10,21,03,00,5.10
2018,10,21,03,01,5.10
2018,10,21,03,02,5.10
2018,10,21,03,03,5.10
2018,10,21,03,04,5.00
2018,10,21,03,05,5.00
2018,10,21,03,06,4.90
2018,10,21,03,07,4.90
2018,10,21,03,08,4.80
2018,10,21,03,09,4.80
2018,10,21,03,10,4.80
2018,10,21,03,11,4.70
2018,10,21,03,12,4.70
2018,10,21,03,13,4.70
2018,10,21,03,14,4.70
2018,10,21,03,15,4.70
2018,10,21,03,16,4.70
2018,10,21,03,17,4.70
2018,10,21,03,18,4.70
2018,10,21,03,19,4.80
2018,10,21,03,20,4.80
2018,10,21,03,21,4.80
2018,10,21,03,22,4.80
2018,10,21,03,23,4.80
2018,10,21,03,24,4.80
2018,10,21,03,25,4.80
2018,10,21,03,26,4.80
2018,10,21,03,27,4.80
2018,10,21,03,28,4.80
2018,10,21,03,29,4.80
2018,10,21,03,30,4.90
2018,10,21,03,31,4.90
2018,10,21,03,32,4.90
2018,10,21,03,33,4.90
2018,10,21,03,34,4.80
2018,10,21,03,35,4.80
2018,10,21,03,36,4.80
2018,10,21,03,37,4.70
2018,10,21,03,38,4.70
2018,10,21,03,39,4.70
2018,10,21,03,40,4.70
2018,10,21,03,41,4.70
2018,10,21,03,42,4.70
2018,10,21,03,43,4.70
2018,10,21,03,44,4.70
2018,10,21,03,45,4.70
2018,10,21,03,46,4.80
2018,10,21,03,47,4.80
2018,10,21,03,48,4.80
2018,10,21,03,49,4.80
2018,10,21,03,50,4.80
2018,10,21,03,51,4.80
2018,10,21,03,52,4.80
2018,10,21,03,53,4.80
2018,10,21,03,54,4.80
2018,10,21,03,55,4.80
2018,10,21,03,56,4.80
2018,10,21,03,57,4.80
2018,10,21,03,58,4.80
2018,10,21,03,59,4.80
2018,10,21,04,00,4.70
2018,10,21,04,01,4.70
2018,10,21,04,02,4.70
2018,10,21,04,03,4.70
2018,10,21,04,04,4.70
2018,10,21,04,05,4.70
2018,10,21,04,06,4.70
2018,10,21,04,07,4.60
2018,10,21,04,08,4.60
2018,10,21,04,09,4.70
2018,10,21,04,10,4.70
2018,10,21,04,11,4.70
2018,10,21,04,12,4.70
2018,10,21,04,13,4.70
2018,10,21,04,14,4.70
2018,10,21,04,15,4.80
2018,10,21,04,16,4.80
2018,10,21,04,17,4.80
2018,10,21,04,18,4.80
2018,10,21,04,19,4.80
2018,10,21,04,20,4.80
2018,10,21,04,21,4.80
2018,10,21,04,22,4.80
2018,10,21,04,23,4.80
2018,10,21,04,24,4.80
2018,10,21,04,25,4.70
2018,10,21,04,26,4.70
2018,10,21,04,27,4.60
2018,10,21,04,28,4.60
2018,10,21,04,29,4.60
2018,10,21,04,30,4.60
2018,10,21,04,31,4.60
2018,10,21,04,32,4.60
2018,10,21,04,33,4.70
2018,10,21,04,34,4.70
2018,10,21,04,35,4.70
2018,10,21,04,36,4.70
2018,10,21,04,37,4.80
2018,10,21,04,38,4.80
2018,10,21,04,39,4.80
2018,10,21,04,40,4.90
2018,10,21,04,41,4.90
2018,10,21,04,42,4.90
2018,10,21,04,43,4.90
2018,10,21,04,44,4.90
2018,10,21,04,45,4.90
2018,10,21,04,46,4.90
2018,10,21,04,47,4.90
2018,10,21,04,48,4.90
2018,10,21,04,49,4.90
2018,10,21,04,50,4.90
2018,10,21,04,51,4.80
2018,10,21,04,52,4.80
2018,10,21,04,53,4.80
2018,10,21,04,54,4.80
2018,10,21,04,55,4.70
2018,10,21,04,56,4.70
2018,10,21,04,57,4.70
2018,10,21,04,58,4.60
2018,10,21,04,59,4.60
2018,10,21,05,00,4.60
2018,10,21,05,01,4.60
2018,10,21,05,02,4.60
2018,10,21,05,03,4.60
2018,10,21,05,04,4.60
2018,10,21,05,05,4.60
2018,10,21,05,06,4.60
2018,10,21,05,07,4.60
2018,10,21,05,08,4.70
2018,10,21,05,09,4.70
2018,10,21,05,10,4.70
2018,10,21,05,11,4.70
2018,10,21,05,12,4.70
2018,10,21,05,13,4.70
2018,10,21,05,14,4.70
2018,10,21,05,15,4.70
2018,10,21,05,16,4.80
2018,10,21,05,17,4.80
2018,10,21,05,18,4.70
2018,10,21,05,19,4.70
2018,10,21,05,20,4.70
2018,10,21,05,21,4.70
2018,10,21,05,22,4.70
2018,10,21,05,23,4.70
2018,10,21,05,24,4.60
2018,10,21,05,25,4.60
2018,10,21,05,26,4.60
2018,10,21,05,27,4.60
2018,10,21,05,28,4.60
2018,10,21,05,29,4.60
2018,10,21,05,30,4.60
2018,10,21,05,31,4.60
2018,10,21,05,32,4.60
2018,10,21,05,33,4.60
2018,10,21,05,34,4.60
2018,10,21,05,35,4.60
2018,10,21,05,36,4.60
2018,10,21,05,37,4.60
2018,10,21,05,38,4.60
2018,10,21,05,39,4.60
2018,10,21,05,40,4.60
2018,10,21,05,41,4.60
2018,10,21,05,42,4.60
2018,10,21,05,43,4.50
2018,10,21,05,44,4.50
2018,10,21,05,45,4.40
2018,10,21,05,46,4.40
2018,10,21,05,47,4.30
2018,10,21,05,48,4.30
2018,10,21,05,49,4.30
2018,10,21,05,50,4.30
2018,10,21,05,51,4.30
2018,10,21,05,52,4.30
2018,10,21,05,53,4.30
2018,10,21,05,54,4.30
2018,10,21,05,55,4.30
2018,10,21,05,56,4.30
2018,10,21,05,57,4.30
2018,10,21,05,58,4.40
2018,10,21,05,59,4.40
2018,10,21,06,00,4.30
2018,10,21,06,01,4.30
2018,10,21,06,02,4.30
2018,10,21,06,03,4.20
2018,10,21,06,04,4.20
2018,10,21,06,05,4.20
2018,10,21,06,06,4.20
2018,10,21,06,07,4.20
2018,10,21,06,08,4.10
2018,10,21,06,09,4.10
2018,10,21,06,10,4.10
2018,10,21,06,11,4.10
2018,10,21,06,12,4.00
2018,10,21,06,13,4.00
2018,10,21,06,14,4.10
2018,10,21,06,15,4.10
2018,10,21,06,16,4.10
2018,10,21,06,17,4.10
2018,10,21,06,18,4.10
2018,10,21,06,19,4.10
2018,10,21,06,20,4.10
2018,10,21,06,21,4.10
2018,10,21,06,22,4.00
2018,10,21,06,23,4.00
2018,10,21,06,24,4.00
2018,10,21,06,25,3.90
2018,10,21,06,26,3.90
2018,10,21,06,27,3.90
2018,10,21,06,28,3.80
2018,10,21,06,29,3.80
2018,10,21,06,30,3.80
2018,10,21,06,31,3.80
2018,10,21,06,32,3.80
2018,10,21,06,33,3.80
2018,10,21,06,34,3.80
2018,10,21,06,35,3.80
2018,10,21,06,36,3.80
2018,10,21,06,37,3.80
2018,10,21,06,38,3.80
2018,10,21,06,39,3.80
2018,10,21,06,40,3.80
2018,10,21,06,41,3.80
2018,10,21,06,42,3.80
2018,10,21,06,43,3.70
2018,10,21,06,44,3.70
2018,10,21,06,45,3.70
2018,10,21,06,46,3.70
2018,10,21,06,47,3.60
2018,10,21,06,48,3.60
2018,10,21,06,49,3.60
2018,10,21,06,50,3.60
2018,10,21,06,51,3.60
2018,10,21,06,52,3.60
2018,10,21,06,53,3.50
2018,10,21,06,54,3.50
2018,10,21,06,55,3.50
2018,10,21,06,56,3.50
2018,10,21,06,57,3.50
2018,10,21,06,58,3.50
2018,10,21,06,59,3.50
2018,10,21,07,00,3.50
2018,10,21,07,01,3.60
2018,10,21,07,02,3.60
2018,10,21,07,03,3.60
2018,10,21,07,04,3.60
2018,10,21,07,05,3.60
2018,10,21,07,06,3.60
2018,10,21,07,07,3.60
2018,10,21,07,08,3.60
2018,10,21,07,09,3.70
2018,10,21,07,10,3.70
2018,10,21,07,11,3.70
2018,10,21,07,12,3.80
2018,10,21,07,13,3.80
2018,10,21,07,14,3.80
2018,10,21,07,15,3.80
2018,10,21,07,16,3.90
2018,10,21,07,17,3.80
2018,10,21,07,18,3.80
2018,10,21,07,19,3.90
2018,10,21,07,20,3.80
2018,10,21,07,21,3.80
2018,10,21,07,22,3.80
2018,10,21,07,23,3.80
2018,10,21,07,24,3.80
2018,10,21,07,25,3.80
2018,10,21,07,26,3.80
2018,10,21,07,27,3.70
2018,10,21,07,28,3.70
2018,10,21,07,29,3.70
2018,10,21,07,30,3.70
2018,10,21,07,31,3.70
2018,10,21,07,32,3.60
2018,10,21,07,33,3.60
2018,10,21,07,34,3.60
2018,10,21,07,35,3.60
2018,10,21,07,36,3.60
2018,10,21,07,37,3.60
2018,10,21,07,38,3.60
2018,10,21,07,39,3.60
2018,10,21,07,40,3.70
2018,10,21,07,41,3.70
2018,10,21,07,42,3.70
2018,10,21,07,43,3.70
2018,10,21,07,44,3.70
2018,10,21,07,45,3.70
2018,10,21,07,46,3.70
2018,10,21,07,47,3.60
2018,10,21,07,48,3.60
2018,10,21,07,49,3.60
2018,10,21,07,50,3.60
2018,10,21,07,51,3.60
2018,10,21,07,52,3.60
2018,10,21,07,53,3.60
2018,10,21,07,54,3.60
2018,10,21,07,55,3.60
2018,10,21,07,56,3.60
2018,10,21,07,57,3.60
2018,10,21,07,58,3.60
2018,10,21,07,59,3.70
2018,10,21,08,00,3.70
2018,10,21,08,01,3.70
2018,10,21,08,02,3.70
2018,10,21,08,03,3.70
2018,10,21,08,04,3.70
2018,10,21,08,05,3.70
2018,10,21,08,06,3.70
2018,10,21,08,07,3.70
2018,10,21,08,08,3.60
2018,10,21,08,09,3.60
2018,10,21,08,10,3.60
2018,10,21,08,11,3.60
2018,10,21,08,12,3.50
2018,10,21,08,13,3.50
2018,10,21,08,14,3.50
2018,10,21,08,15,3.50
2018,10,21,08,16,3.60
2018,10,21,08,17,3.60
2018,10,21,08,18,3.60
2018,10,21,08,19,3.70
2018,10,21,08,20,3.70
2018,10,21,08,21,3.80
2018,10,21,08,22,3.80
2018,10,21,08,23,3.80
2018,10,21,08,24,3.90
2018,10,21,08,25,3.90
2018,10,21,08,26,3.90
2018,10,21,08,27,3.90
2018,10,21,08,28,3.90
2018,10,21,08,29,3.90
2018,10,21,08,30,3.90
2018,10,21,08,31,3.90
2018,10,21,08,32,3.90
2018,10,21,08,33,3.80
2018,10,21,08,34,3.80
2018,10,21,08,35,3.80
2018,10,21,08,36,3.80
2018,10,21,08,37,3.90
2018,10,21,08,38,3.90
2018,10,21,08,39,3.90
2018,10,21,08,40,3.90
2018,10,21,08,41,4.00
2018,10,21,08,42,4.00
2018,10,21,08,43,4.00
2018,10,21,08,44,4.00
2018,10,21,08,45,4.00
2018,10,21,08,46,4.00
2018,10,21,08,47,4.00
2018,10,21,08,48,4.10
2018,10,21,08,49,4.10
2018,10,21,08,50,4.10
2018,10,21,08,51,4.10
2018,10,21,08,52,4.10
2018,10,21,08,53,4.10
2018,10,21,08,54,4.20
2018,10,21,08,55,4.20
2018,10,21,08,56,4.30
2018,10,21,08,57,4.30
2018,10,21,08,58,4.30
2018,10,21,08,59,4.40
2018,10,21,09,00,4.40
2018,10,21,09,01,4.50
2018,10,21,09,02,4.60
2018,10,21,09,03,4.70
2018,10,21,09,04,4.80
2018,10,21,09,05,4.90
2018,10,21,09,06,5.00
2018,10,21,09,07,5.10
2018,10,21,09,08,5.20
2018,10,21,09,09,5.30
2018,10,21,09,10,5.40
2018,10,21,09,11,5.50
2018,10,21,09,12,5.60
2018,10,21,09,13,5.70
2018,10,21,09,14,5.80
2018,10,21,09,15,5.90
2018,10,21,09,16,5.90
2018,10,21,09,17,6.10
2018,10,21,09,18,6.20
2018,10,21,09,19,6.30
2018,10,21,09,20,6.40
2018,10,21,09,21,6.50
2018,10,21,09,22,6.60
2018,10,21,09,23,6.70
2018,10,21,09,24,6.80
2018,10,21,09,25,6.90
2018,10,21,09,26,7.00
2018,10,21,09,27,7.10
2018,10,21,09,28,7.20
2018,10,21,09,29,7.20
2018,10,21,09,30,7.30
2018,10,21,09,31,7.30
2018,10,21,09,32,7.40
2018,10,21,09,33,7.40
2018,10,21,09,34,7.50
2018,10,21,09,35,7.50
2018,10,21,09,36,7.60
2018,10,21,09,37,7.70
2018,10,21,09,38,7.70
2018,10,21,09,39,7.70
2018,10,21,09,40,7.80
2018,10,21,09,41,7.80
2018,10,21,09,42,7.90
2018,10,21,09,43,8.00
2018,10,21,09,44,8.00
2018,10,21,09,45,8.10
2018,10,21,09,46,8.20
2018,10,21,09,47,8.30
2018,10,21,09,48,8.40
2018,10,21,09,49,8.50
2018,10,21,09,50,8.60
2018,10,21,09,51,8.70
2018,10,21,09,52,8.70
2018,10,21,09,53,8.80
2018,10,21,09,54,8.90
2018,10,21,09,55,9.00
2018,10,21,09,56,9.10
2018,10,21,09,57,9.20
2018,10,21,09,58,9.20
2018,10,21,09,59,9.30
2018,10,21,10,00,9.40
2018,10,21,10,01,9.40
2018,10,21,10,02,9.40
2018,10,21,10,03,9.50
2018,10,21,10,04,9.60
2018,10,21,10,05,9.60
2018,10,21,10,06,9.70
2018,10,21,10,07,9.80
2018,10,21,10,08,9.90
2018,10,21,10,09,9.90
2018,10,21,10,10,10.00
2018,10,21,10,11,10.10
2018,10,21,10,12,10.20
2018,10,21,10,13,10.30
2018,10,21,10,14,10.30
2018,10,21,10,15,10.40
2018,10,21,10,16,10.40
2018,10,21,10,17,10.50
2018,10,21,10,18,10.60
2018,10,21,10,19,10.60
2018,10,21,10,20,10.70
2018,10,21,10,21,10.70
2018,10,21,10,22,10.70
2018,10,21,10,23,10.80
2018,10,21,10,24,10.80
2018,10,21,10,25,10.90
2018,10,21,10,26,10.90
2018,10,21,10,27,11.00
2018,10,21,10,28,11.00
2018,10,21,10,29,11.10
2018,10,21,10,30,11.10
2018,10,21,10,31,11.20
2018,10,21,10,32,11.30
2018,10,21,10,33,11.30
2018,10,21,10,34,11.40
2018,10,21,10,35,11.40
2018,10,21,10,36,11.40
2018,10,21,10,37,11.40
2018,10,21,10,38,11.40
2018,10,21,10,39,11.40
2018,10,21,10,40,11.50
2018,10,21,10,41,11.50
2018,10,21,10,42,11.60
2018,10,21,10,43,11.70
2018,10,21,10,44,11.70
2018,10,21,10,45,11.80
2018,10,21,10,46,11.80
2018,10,21,10,47,11.90
2018,10,21,10,48,11.90
2018,10,21,10,49,11.90
2018,10,21,10,50,11.90
2018,10,21,10,51,12.00
2018,10,21,10,52,12.00
2018,10,21,10,53,12.00
2018,10,21,10,54,12.10
2018,10,21,10,55,12.10
2018,10,21,10,56,12.20
2018,10,21,10,57,12.20
2018,10,21,10,58,12.30
2018,10,21,10,59,12.30
2018,10,21,11,00,12.40
2018,10,21,11,01,12.50
2018,10,21,11,02,12.60
2018,10,21,11,03,12.60
2018,10,21,11,04,12.70
2018,10,21,11,05,12.70
2018,10,21,11,06,12.80
2018,10,21,11,07,12.80
2018,10,21,11,08,12.90
2018,10,21,11,09,13.00
2018,10,21,11,10,13.00
2018,10,21,11,11,13.10
2018,10,21,11,12,13.20
2018,10,21,11,13,13.20
2018,10,21,11,14,13.30
2018,10,21,11,15,13.40
2018,10,21,11,16,13.50
2018,10,21,11,17,13.60
2018,10,21,11,18,13.60
2018,10,21,11,19,13.70
2018,10,21,11,20,13.70
2018,10,21,11,21,13.80
2018,10,21,11,22,13.80
2018,10,21,11,23,13.90
2018,10,21,11,24,14.00
2018,10,21,11,25,14.10
2018,10,21,11,26,14.20
2018,10,21,11,27,14.30
2018,10,21,11,28,14.40
2018,10,21,11,29,14.50
2018,10,21,11,30,14.60
2018,10,21,11,31,14.60
2018,10,21,11,32,14.70
2018,10,21,11,33,14.70
2018,10,21,11,34,14.80
2018,10,21,11,35,14.90
2018,10,21,11,36,14.90
2018,10,21,11,37,15.00
2018,10,21,11,38,15.00
2018,10,21,11,39,15.10
2018,10,21,11,40,15.10
2018,10,21,11,41,15.10
2018,10,21,11,42,15.10
2018,10,21,11,43,15.10
2018,10,21,11,44,15.10
2018,10,21,11,45,15.10
2018,10,21,11,46,15.10
2018,10,21,11,47,15.20
2018,10,21,11,48,15.20
2018,10,21,11,49,15.20
2018,10,21,11,50,15.20
2018,10,21,11,51,15.30
2018,10,21,11,52,15.30
2018,10,21,11,53,15.30
2018,10,21,11,54,15.30
2018,10,21,11,55,15.30
2018,10,21,11,56,15.30
2018,10,21,11,57,15.30
2018,10,21,11,58,15.30
2018,10,21,11,59,15.20
2018,10,21,12,00,15.20
2018,10,21,12,01,15.20
2018,10,21,12,02,15.20
2018,10,21,12,03,15.20
2018,10,21,12,04,15.20
2018,10,21,12,05,15.10
2018,10,21,12,06,15.10
2018,10,21,12,07,15.10
2018,10,21,12,08,15.10
2018,10,21,12,09,15.10
2018,10,21,12,10,15.20
2018,10,21,12,11,15.20
2018,10,21,12,12,15.30
2018,10,21,12,13,15.30
2018,10,21,12,14,15.30
2018,10,21,12,15,15.30
2018,10,21,12,16,15.20
2018,10,21,12,17,15.20
2018,10,21,12,18,15.20
2018,10,21,12,19,15.20
2018,10,21,12,20,15.20
2018,10,21,12,21,15.20
2018,10,21,12,22,15.20
2018,10,21,12,23,15.20
2018,10,21,12,24,15.30
2018,10,21,12,25,15.30
2018,10,21,12,26,15.30
2018,10,21,12,27,15.40
2018,10,21,12,28,15.40
2018,10,21,12,29,15.40
2018,10,21,12,30,15.40
2018,10,21,12,31,15.40
2018,10,21,12,32,15.40
2018,10,21,12,33,15.40
2018,10,21,12,34,15.40
2018,10,21,12,35,15.30
2018,10,21,12,36,15.30
2018,10,21,12,37,15.40
2018,10,21,12,38,15.40
2018,10,21,12,39,15.40
2018,10,21,12,40,15.40
2018,10,21,12,41,15.50
2018,10,21,12,42,15.50
2018,10,21,12,43,15.60
2018,10,21,12,44,15.60
2018,10,21,12,45,15.70
2018,10,21,12,46,15.70
2018,10,21,12,47,15.70
2018,10,21,12,48,15.70
2018,10,21,12,49,15.70
2018,10,21,12,50,15.70
2018,10,21,12,51,15.70
2018,10,21,12,52,15.70
2018,10,21,12,53,15.70
2018,10,21,12,54,15.70
2018,10,21,12,55,15.70
2018,10,21,12,56,15.70
2018,10,21,12,57,15.70
2018,10,21,12,58,15.70
2018,10,21,12,59,15.70
2018,10,21,13,00,15.70
2018,10,21,13,01,15.70
2018,10,21,13,02,15.80
2018,10,21,13,03,15.80
2018,10,21,13,04,15.70
2018,10,21,13,05,15.70
2018,10,21,13,06,15.70
2018,10,21,13,07,15.70
2018,10,21,13,08,15.70
2018,10,21,13,09,15.70
2018,10,21,13,10,15.70
2018,10,21,13,11,15.70
2018,10,21,13,12,15.70
2018,10,21,13,13,15.80
2018,10,21,13,14,15.80
2018,10,21,13,15,15.80
2018,10,21,13,16,15.80
2018,10,21,13,17,15.80
2018,10,21,13,18,15.90
2018,10,21,13,19,16.00
2018,10,21,13,20,16.00
2018,10,21,13,21,16.10
2018,10,21,13,22,16.10
2018,10,21,13,23,16.20
2018,10,21,13,24,16.20
2018,10,21,13,25,16.30
2018,10,21,13,26,16.30
2018,10,21,13,27,16.40
2018,10,21,13,28,16.40
2018,10,21,13,29,16.40
2018,10,21,13,30,16.50
2018,10,21,13,31,16.50
2018,10,21,13,32,16.40
2018,10,21,13,33,16.40
2018,10,21,13,34,16.50
2018,10,21,13,35,16.40
2018,10,21,13,36,16.40
2018,10,21,13,37,16.40
2018,10,21,13,38,16.30
2018,10,21,13,39,16.30
2018,10,21,13,40,16.30
2018,10,21,13,41,16.30
2018,10,21,13,42,16.30
2018,10,21,13,43,16.20
2018,10,21,13,44,16.20
2018,10,21,13,45,16.10
2018,10,21,13,46,16.10
2018,10,21,13,47,16.00
2018,10,21,13,48,16.00
2018,10,21,13,49,15.90
2018,10,21,13,50,15.90
2018,10,21,13,51,15.90
2018,10,21,13,52,15.90
2018,10,21,13,53,15.80
2018,10,21,13,54,15.80
2018,10,21,13,55,15.80
2018,10,21,13,56,15.80
2018,10,21,13,57,15.70
2018,10,21,13,58,15.70
2018,10,21,13,59,15.60
2018,10,21,14,00,15.60
2018,10,21,14,01,15.50
2018,10,21,14,02,15.50
2018,10,21,14,03,15.50
2018,10,21,14,04,15.50
2018,10,21,14,05,15.40
2018,10,21,14,06,15.40
2018,10,21,14,07,15.40
2018,10,21,14,08,15.40
2018,10,21,14,09,15.40
2018,10,21,14,10,15.40
2018,10,21,14,11,15.40
2018,10,21,14,12,15.40
2018,10,21,14,13,15.40
2018,10,21,14,14,15.40
2018,10,21,14,15,15.40
2018,10,21,14,16,15.40
2018,10,21,14,17,15.40
2018,10,21,14,18,15.40
2018,10,21,14,19,15.40
2018,10,21,14,20,15.40
2018,10,21,14,21,15.40
2018,10,21,14,22,15.40
2018,10,21,14,23,15.40
2018,10,21,14,24,15.30
2018,10,21,14,25,15.30
2018,10,21,14,26,15.30
2018,10,21,14,27,15.30
2018,10,21,14,28,15.30
2018,10,21,14,29,15.30
2018,10,21,14,30,15.40
2018,10,21,14,31,15.40
2018,10,21,14,32,15.40
2018,10,21,14,33,15.50
2018,10,21,14,34,15.50
2018,10,21,14,35,15.50
2018,10,21,14,36,15.50
2018,10,21,14,37,15.50
2018,10,21,14,38,15.50
2018,10,21,14,39,15.40
2018,10,21,14,40,15.40
2018,10,21,14,41,15.50
2018,10,21,14,42,15.50
2018,10,21,14,43,15.50
2018,10,21,14,44,15.50
2018,10,21,14,45,15.60
2018,10,21,14,46,15.60
2018,10,21,14,47,15.60
2018,10,21,14,48,15.60
2018,10,21,14,49,15.60
2018,10,21,14,50,15.60
2018,10,21,14,51,15.60
2018,10,21,14,52,15.60
2018,10,21,14,53,15.60
2018,10,21,14,54,15.50
2018,10,21,14,55,15.50
2018,10,21,14,56,15.50
2018,10,21,14,57,15.40
2018,10,21,14,58,15.40
2018,10,21,14,59,15.30
2018,10,21,15,00,15.30
2018,10,21,15,01,15.30
2018,10,21,15,02,15.30
2018,10,21,15,03,15.30
2018,10,21,15,04,15.40
2018,10,21,15,05,15.40
2018,10,21,15,06,15.40
2018,10,21,15,07,15.50
2018,10,21,15,08,15.50
2018,10,21,15,09,15.50
2018,10,21,15,10,15.50
2018,10,21,15,11,15.50
2018,10,21,15,12,15.50
2018,10,21,15,13,15.40
2018,10,21,15,14,15.40
2018,10,21,15,15,15.50
2018,10,21,15,16,15.50
2018,10,21,15,17,15.50
2018,10,21,15,18,15.50
2018,10,21,15,19,15.50
2018,10,21,15,20,15.50
2018,10,21,15,21,15.60
2018,10,21,15,22,15.60
2018,10,21,15,23,15.60
2018,10,21,15,24,15.60
2018,10,21,15,25,15.60
2018,10,21,15,26,15.60
2018,10,21,15,27,15.60
2018,10,21,15,28,15.60
2018,10,21,15,29,15.60
2018,10,21,15,30,15.60
2018,10,21,15,31,15.60
2018,10,21,15,32,15.60
2018,10,21,15,33,15.50
2018,10,21,15,34,15.60
2018,10,21,15,35,15.60
2018,10,21,15,36,15.60
2018,10,21,15,37,15.60
2018,10,21,15,38,15.60
2018,10,21,15,39,15.60
2018,10,21,15,40,15.60
2018,10,21,15,41,15.60
2018,10,21,15,42,15.70
2018,10,21,15,43,15.70
2018,10,21,15,44,15.70
2018,10,21,15,45,15.70
2018,10,21,15,46,15.70
2018,10,21,15,47,15.70
2018,10,21,15,48,15.70
2018,10,21,15,49,15.70
2018,10,21,15,50,15.70
2018,10,21,15,51,15.70
2018,10,21,15,52,15.60
2018,10,21,15,53,15.60
2018,10,21,15,54,15.60
2018,10,21,15,55,15.60
2018,10,21,15,56,15.60
2018,10,21,15,57,15.60
2018,10,21,15,58,15.60
2018,10,21,15,59,15.60
2018,10,21,16,00,15.50
2018,10,21,16,01,15.50
2018,10,21,16,02,15.50
2018,10,21,16,03,15.50
2018,10,21,16,04,15.50
2018,10,21,16,05,15.50
2018,10,21,16,06,15.50
2018,10,21,16,07,15.50
2018,10,21,16,08,15.40
2018,10,21,16,09,15.40
2018,10,21,16,10,15.40
2018,10,21,16,11,15.40
2018,10,21,16,12,15.40
2018,10,21,16,13,15.40
2018,10,21,16,14,15.40
2018,10,21,16,15,15.40
2018,10,21,16,16,15.40
2018,10,21,16,17,15.40
2018,10,21,16,18,15.40
2018,10,21,16,19,15.40
2018,10,21,16,20,15.30
2018,10,21,16,21,15.30
2018,10,21,16,22,15.30
2018,10,21,16,23,15.30
2018,10,21,16,24,15.30
2018,10,21,16,25,15.30
2018,10,21,16,26,15.30
2018,10,21,16,27,15.20
2018,10,21,16,28,15.20
2018,10,21,16,29,15.20
2018,10,21,16,30,15.20
2018,10,21,16,31,15.20
2018,10,21,16,32,15.20
2018,10,21,16,33,15.10
2018,10,21,16,34,15.10
2018,10,21,16,35,15.10
2018,10,21,16,36,15.10
2018,10,21,16,37,15.00
2018,10,21,16,38,15.00
2018,10,21,16,39,15.00
2018,10,21,16,40,15.00
2018,10,21,16,41,14.90
2018,10,21,16,42,14.90
2018,10,21,16,43,14.90
2018,10,21,16,44,14.90
2018,10,21,16,45,14.80
2018,10,21,16,46,14.80
2018,10,21,16,47,14.80
2018,10,21,16,48,14.80
2018,10,21,16,49,14.80
2018,10,21,16,50,14.80
2018,10,21,16,51,14.70
2018,10,21,16,52,14.70
2018,10,21,16,53,14.70
2018,10,21,16,54,14.70
2018,10,21,16,55,14.60
2018,10,21,16,56,14.60
2018,10,21,16,57,14.60
2018,10,21,16,58,14.50
2018,10,21,16,59,14.40
2018,10,21,17,00,14.40
2018,10,21,17,01,14.40
2018,10,21,17,02,14.40
2018,10,21,17,03,14.40
2018,10,21,17,04,14.30
2018,10,21,17,05,14.30
2018,10,21,17,06,14.20
2018,10,21,17,07,14.20
2018,10,21,17,08,14.20
2018,10,21,17,09,14.10
2018,10,21,17,10,14.10
2018,10,21,17,11,14.10
2018,10,21,17,12,14.10
2018,10,21,17,13,14.00
2018,10,21,17,14,14.00
2018,10,21,17,15,13.90
2018,10,21,17,16,13.90
2018,10,21,17,17,13.90
2018,10,21,17,18,13.80
2018,10,21,17,19,13.80
2018,10,21,17,20,13.80
2018,10,21,17,21,13.70
2018,10,21,17,22,13.70
2018,10,21,17,23,13.70
2018,10,21,17,24,13.60
2018,10,21,17,25,13.60
2018,10,21,17,26,13.50
2018,10,21,17,27,13.50
2018,10,21,17,28,13.40
2018,10,21,17,29,13.40
2018,10,21,17,30,13.30
2018,10,21,17,31,13.30
2018,10,21,17,32,13.20
2018,10,21,17,33,13.20
2018,10,21,17,34,13.10
2018,10,21,17,35,13.10
2018,10,21,17,36,13.00
2018,10,21,17,37,13.00
2018,10,21,17,38,12.90
2018,10,21,17,39,12.90
2018,10,21,17,40,12.90
2018,10,21,17,41,12.80
2018,10,21,17,42,12.80
2018,10,21,17,43,12.80
2018,10,21,17,44,12.70
2018,10,21,17,45,12.70